sat.trackr.live / text

‹ back to catalog

STARLINK-32866

NORAD 62858 · 2025-022E

PAYLOAD ACTIVE UNKNOWN

§ Identity

Operator
Country
US
Launch date
2025-02-01
Launch site
AFWTR
Launch vehicle
Mass (kg)
RCS (m²)

Purposes: comms

External: N2YO · Heavens-Above · Gunter

§ Orbital elements

Epoch: 2026-05-25T03:44:58.920000Z

Period
93.85 min
Inclination
53.1608°
Eccentricity
0.0000944
Mean motion
15.34376878 rev/d
Perigee alt
462.1 km
Apogee alt
463.4 km
Semi-major
6,840.9 km
B*
7.1388e-4
RAAN
133.2914°
Arg perigee
58.1249°
Mean anomaly
301.9845°
Rev number
7,362

§ Raw data

STARLINK-328661 62858U 25022E   26145.15623750  .00023802  00000+0  71388-3 0  99912 62858  53.1608 133.2914 0000944  58.1249 301.9845 15.34376878 73623

JSON: /api/v1/satellites/62858 · /tle

For live sub-satellite position, see the globe view (requires WebGL).

§ Visibility from observer

Set your observer location to see the next 7 days of passes ≥ 10°. The values pass through the URL so the page stays shareable.

No JS? Fill the form by hand. The geolocation button needs JavaScript.